Terminal Aerodrome Forecast
Issued by NWS

Home | Current Version | Previous Version | Text Only | Print | Product List | Glossary On
Versions: 1 2 3 4 5 6 7 8 9 10 11 12 13 14 15 16 17 18 19 20 21 22 23 24 25 26 27 28 29 30 31 32 33 34 35 36 37 38 39 40 41 42 43 44 45 46 47 48 49 50
000
FTUS41 KBOX 302105 AAA
TAFHYA
TAF AMD
KHYA 302105Z 3021/0118 04012KT 6SM -RA OVC012
     FM010800 06014G24KT 4SM -RA OVC010
     FM011100 06013G22KT 6SM -SHRA BR OVC008
     FM011700 03009KT 6SM BR VCSH OVC008=

USA.gov is the U.S. government's official web portal to all federal, state and local government web resources and services.